Location: Earls Croome
(52.0667°N, 2.2000°W)
Time: 16:43:23
(UTC+00:00)

CZ-4B R/B - Pass Details

Date: 17 November 2019
Orbit: 809 x 882 km, 99.1° (Epoch: 09 December)

Event Time Altitude Azimuth Distance (km) Brightness Sun altitude
Rises 05:29:30 0° 19° (NNE) 3,363 6.5 -18.5°
Reaches altitude 10° 05:31:55 10° 24° (NNE) 2,434 5.8 -18.1°
Maximum altitude 05:37:09 51° 101° (E) 1,041 4.1 -17.3°
Drops below altitude 10° 05:42:27 10° 177° (S) 2,460 5.8 -16.5°
Sets 05:44:54 0° 182° (S) 3,403 6.5 -16.1°
